Time,TemperatureF,DewpointF,PressureIn,WindDirection,WindDirectionDegrees,WindSpeedMPH,WindSpeedGustMPH,Humidity,HourlyPrecipIn,Conditions,Clouds,dailyrainin,SoftwareType,DateUTC
2013-01-26 00:05:00,32.0,10.4,29.56,South,173,5.8,5.8,40,0.00,,---,0.00,VWS V14.01,2013-01-26 07:05:00,
2013-01-26 00:10:00,32.0,10.4,29.56,South,173,5.8,5.8,40,0.00,,---,0.00,VWS V14.01,2013-01-26 07:10:00,
2013-01-26 00:15:00,31.8,10.3,29.56,South,173,5.8,5.8,40,0.00,,---,0.00,VWS V14.01,2013-01-26 07:15:00,
2013-01-26 00:20:00,31.6,10.1,29.56,South,173,4.5,5.4,40,0.00,,---,0.00,VWS V14.01,2013-01-26 07:20:00,
2013-01-26 00:26:00,31.5,9.9,29.56,South,173,4.9,4.9,40,0.00,,---,0.00,VWS V14.01,2013-01-26 07:26:00,
2013-01-26 00:31:00,31.3,10.3,29.53,South,176,4.0,4.9,41,0.00,,---,0.00,VWS V14.01,2013-01-26 07:31:00,
2013-01-26 00:36:00,31.5,10.5,29.53,South,180,5.8,6.3,41,0.00,,---,0.00,VWS V14.01,2013-01-26 07:36:00,
2013-01-26 00:41:00,31.5,10.5,29.53,South,182,4.9,4.9,41,0.00,,---,0.00,VWS V14.01,2013-01-26 07:41:00,
2013-01-26 00:47:00,31.5,10.5,29.53,South,184,4.9,5.4,41,0.00,,---,0.00,VWS V14.01,2013-01-26 07:47:00,
2013-01-26 00:52:00,31.5,10.5,29.53,South,184,4.9,4.9,41,0.00,,---,0.00,VWS V14.01,2013-01-26 07:52:00,
2013-01-26 00:58:00,31.3,10.3,29.53,South,184,5.4,5.4,41,0.00,,---,0.00,VWS V14.01,2013-01-26 07:58:00,
2013-01-26 01:04:00,31.1,10.2,29.53,South,185,5.4,5.4,41,0.00,,---,0.00,VWS V14.01,2013-01-26 08:04:00,
2013-01-26 01:09:00,31.1,10.2,29.53,South,185,4.9,4.9,41,0.00,,---,0.00,VWS V14.01,2013-01-26 08:09:00,
2013-01-26 01:14:00,31.1,10.2,29.53,South,185,5.4,5.4,41,0.00,,---,0.00,VWS V14.01,2013-01-26 08:14:00,
2013-01-26 01:19:00,31.1,10.2,29.53,South,185,4.9,4.9,41,0.00,,---,0.00,VWS V14.01,2013-01-26 08:19:00,
2013-01-26 01:25:00,31.1,10.2,29.53,South,184,5.4,5.4,41,0.00,,---,0.00,VWS V14.01,2013-01-26 08:25:00,
2013-01-26 01:30:00,30.7,9.8,29.53,South,184,5.8,5.8,41,0.00,,---,0.00,VWS V14.01,2013-01-26 08:30:00,
2013-01-26 01:35:00,30.9,10.0,29.53,South,184,5.4,5.4,41,0.00,,---,0.00,VWS V14.01,2013-01-26 08:35:00,
2013-01-26 01:41:00,30.9,10.0,29.53,South,184,4.5,4.9,41,0.00,,---,0.00,VWS V14.01,2013-01-26 08:41:00,
2013-01-26 01:47:00,30.9,10.5,29.53,South,185,4.5,4.5,42,0.00,,---,0.00,VWS V14.01,2013-01-26 08:47:00,
2013-01-26 01:52:00,30.7,10.4,29.53,South,185,5.4,5.4,42,0.00,,---,0.00,VWS V14.01,2013-01-26 08:52:00,
2013-01-26 01:57:00,30.9,10.5,29.53,South,190,4.9,4.9,42,0.00,,---,0.00,VWS V14.01,2013-01-26 08:57:00,
2013-01-26 02:02:00,30.9,10.5,29.53,South,190,4.5,4.5,42,0.00,,---,0.00,VWS V14.01,2013-01-26 09:02:00,
2013-01-26 02:08:00,30.7,10.4,29.53,South,190,4.5,4.5,42,0.00,,---,0.00,VWS V14.01,2013-01-26 09:08:00,
2013-01-26 02:14:00,30.6,10.2,29.53,South,187,5.4,5.4,42,0.00,,---,0.00,VWS V14.01,2013-01-26 09:14:00,
2013-01-26 02:19:00,30.4,10.1,29.53,South,186,4.9,5.4,42,0.00,,---,0.00,VWS V14.01,2013-01-26 09:19:00,
2013-01-26 02:25:00,30.2,9.9,29.53,South,186,5.4,5.4,42,0.00,,---,0.00,VWS V14.01,2013-01-26 09:25:00,
2013-01-26 02:30:00,30.2,9.9,29.53,South,186,4.5,4.5,42,0.00,,---,0.00,VWS V14.01,2013-01-26 09:30:00,
2013-01-26 02:36:00,30.0,9.7,29.53,South,173,5.4,5.4,42,0.00,,---,0.00,VWS V14.01,2013-01-26 09:36:00,
2013-01-26 02:42:00,29.7,9.4,29.53,SSE,168,5.8,5.8,42,0.00,,---,0.00,VWS V14.01,2013-01-26 09:42:00,
2013-01-26 02:47:00,29.8,10.1,29.50,SSE,165,6.3,6.7,43,0.00,,---,0.00,VWS V14.01,2013-01-26 09:47:00,
2013-01-26 02:53:00,30.0,10.2,29.50,SSE,165,4.9,5.4,43,0.00,,---,0.00,VWS V14.01,2013-01-26 09:53:00,
2013-01-26 02:58:00,30.0,10.2,29.50,SSE,165,4.9,4.9,43,0.00,,---,0.00,VWS V14.01,2013-01-26 09:58:00,
2013-01-26 03:04:00,29.8,10.1,29.50,SSE,165,5.4,5.4,43,0.00,,---,0.00,VWS V14.01,2013-01-26 10:04:00,
2013-01-26 03:09:00,29.8,10.1,29.50,SSE,165,4.9,4.9,43,0.00,,---,0.00,VWS V14.01,2013-01-26 10:09:00,
2013-01-26 03:14:00,29.7,9.9,29.50,SSE,165,5.4,5.4,43,0.00,,---,0.00,VWS V14.01,2013-01-26 10:14:00,
2013-01-26 03:20:00,29.7,9.9,29.50,SSE,162,5.4,5.4,43,0.00,,---,0.00,VWS V14.01,2013-01-26 10:20:00,
2013-01-26 03:25:00,29.7,9.9,29.50,SE,146,6.3,6.3,43,0.00,,---,0.00,VWS V14.01,2013-01-26 10:25:00,
2013-01-26 03:31:00,29.3,9.6,29.50,SE,137,8.1,8.1,43,0.00,,---,0.00,VWS V14.01,2013-01-26 10:31:00,
2013-01-26 03:36:00,29.1,9.9,29.50,SE,146,8.1,8.1,44,0.00,,---,0.00,VWS V14.01,2013-01-26 10:36:00,
2013-01-26 03:42:00,29.1,9.9,29.50,SSE,148,6.7,6.7,44,0.00,,---,0.00,VWS V14.01,2013-01-26 10:42:00,
2013-01-26 03:48:00,29.5,10.3,29.50,SSE,147,7.6,7.6,44,0.00,,---,0.00,VWS V14.01,2013-01-26 10:48:00,
2013-01-26 03:54:00,29.7,10.4,29.50,SSE,151,6.3,7.6,44,0.00,,---,0.00,VWS V14.01,2013-01-26 10:54:00,
2013-01-26 04:00:00,29.8,10.6,29.50,SE,146,7.6,7.6,44,0.00,,---,0.00,VWS V14.01,2013-01-26 11:00:00,
2013-01-26 04:05:00,29.8,10.6,29.50,SSE,150,8.1,8.3,44,0.00,,---,0.00,VWS V14.01,2013-01-26 11:05:00,
2013-01-26 04:10:00,29.8,10.6,29.50,SE,146,8.3,8.3,44,0.00,,---,0.00,VWS V14.01,2013-01-26 11:10:00,
2013-01-26 04:15:00,29.8,10.6,29.47,SSE,151,8.1,8.1,44,0.00,,---,0.00,VWS V14.01,2013-01-26 11:15:00,
2013-01-26 04:21:00,29.8,10.6,29.47,SSE,153,8.1,8.1,44,0.00,,---,0.00,VWS V14.01,2013-01-26 11:21:00,
2013-01-26 04:27:00,29.7,10.4,29.47,SE,144,9.6,10.1,44,0.00,,---,0.00,VWS V14.01,2013-01-26 11:27:00,
2013-01-26 04:32:00,29.7,10.4,29.47,SSE,151,8.7,8.7,44,0.00,,---,0.00,VWS V14.01,2013-01-26 11:32:00,
2013-01-26 04:38:00,29.7,10.4,29.47,SSE,156,8.3,8.3,44,0.00,,---,0.00,VWS V14.01,2013-01-26 11:38:00,
2013-01-26 04:43:00,29.5,10.3,29.47,SSE,158,7.6,7.6,44,0.00,,---,0.00,VWS V14.01,2013-01-26 11:43:00,
2013-01-26 04:49:00,29.3,10.1,29.47,SSE,150,10.1,10.1,44,0.00,,---,0.00,VWS V14.01,2013-01-26 11:49:00,
2013-01-26 04:54:00,29.1,9.9,29.47,SSE,147,10.1,10.5,44,0.00,,---,0.00,VWS V14.01,2013-01-26 11:54:00,
2013-01-26 04:59:00,28.8,9.6,29.47,SSE,149,10.1,10.5,44,0.00,,---,0.00,VWS V14.01,2013-01-26 11:59:00,
2013-01-26 05:05:00,28.8,9.6,29.47,SE,145,11.0,11.0,44,0.00,,---,0.00,VWS V14.01,2013-01-26 12:05:00,
2013-01-26 05:10:00,28.9,9.8,29.47,SSE,157,8.1,8.7,44,0.00,,---,0.00,VWS V14.01,2013-01-26 12:10:00,
2013-01-26 05:16:00,28.9,9.8,29.47,SSE,160,8.3,8.3,44,0.00,,---,0.00,VWS V14.01,2013-01-26 12:16:00,
2013-01-26 05:21:00,28.9,9.8,29.47,SSE,166,5.8,6.3,44,0.00,,---,0.00,VWS V14.01,2013-01-26 12:21:00,
2013-01-26 05:26:00,28.8,9.6,29.47,SSE,165,6.3,6.3,44,0.00,,---,0.00,VWS V14.01,2013-01-26 12:26:00,
2013-01-26 05:31:00,28.6,9.4,29.47,SSE,168,5.8,5.8,44,0.00,,---,0.00,VWS V14.01,2013-01-26 12:31:00,
2013-01-26 05:37:00,28.6,9.4,29.47,SSE,166,8.7,8.7,44,0.00,,---,0.00,VWS V14.01,2013-01-26 12:37:00,
2013-01-26 05:42:00,28.2,9.6,29.47,SSE,163,6.3,6.3,45,0.00,,---,0.00,VWS V14.01,2013-01-26 12:42:00,
2013-01-26 05:48:00,28.2,9.6,29.47,SSE,168,5.4,5.4,45,0.00,,---,0.00,VWS V14.01,2013-01-26 12:48:00,
2013-01-26 05:54:00,28.2,9.6,29.47,South,172,4.9,6.3,45,0.00,,---,0.00,VWS V14.01,2013-01-26 12:54:00,
2013-01-26 06:00:00,28.0,9.4,29.47,South,172,5.8,5.8,45,0.00,,---,0.00,VWS V14.01,2013-01-26 13:00:00,
2013-01-26 06:06:00,27.9,9.3,29.47,South,170,5.4,5.8,45,0.00,,---,0.00,VWS V14.01,2013-01-26 13:06:00,
2013-01-26 06:11:00,27.7,9.1,29.47,SSE,152,6.3,7.2,45,0.00,,---,0.00,VWS V14.01,2013-01-26 13:11:00,
2013-01-26 06:17:00,27.1,8.6,29.47,SSE,150,7.2,7.2,45,0.00,,---,0.00,VWS V14.01,2013-01-26 13:17:00,
2013-01-26 06:23:00,26.8,8.3,29.47,SSE,154,6.3,7.2,45,0.00,,---,0.00,VWS V14.01,2013-01-26 13:23:00,
2013-01-26 06:29:00,26.6,8.6,29.47,SSE,159,3.6,3.6,46,0.00,,---,0.00,VWS V14.01,2013-01-26 13:29:00,
2013-01-26 06:35:00,26.4,8.5,29.47,SSE,165,3.6,3.6,46,0.00,,---,0.00,VWS V14.01,2013-01-26 13:35:00,
2013-01-26 06:41:00,26.1,8.1,29.47,SSE,165,3.1,3.6,46,0.00,,---,0.00,VWS V14.01,2013-01-26 13:41:00,
2013-01-26 06:46:00,26.1,8.1,29.47,SSE,165,3.6,4.9,46,0.00,,---,0.00,VWS V14.01,2013-01-26 13:46:00,
2013-01-26 06:51:00,26.1,8.1,29.47,SSE,165,3.6,3.6,46,0.00,,---,0.00,VWS V14.01,2013-01-26 13:51:00,
2013-01-26 06:57:00,26.1,8.1,29.47,SSE,160,5.8,6.3,46,0.00,,---,0.00,VWS V14.01,2013-01-26 13:57:00,
2013-01-26 07:02:00,26.1,8.1,29.47,SSE,158,5.8,5.8,46,0.00,,---,0.00,VWS V14.01,2013-01-26 14:02:00,
2013-01-26 07:08:00,26.1,8.6,29.47,SSE,154,6.3,6.7,47,0.00,,---,0.00,VWS V14.01,2013-01-26 14:08:00,
2013-01-26 07:13:00,25.9,8.4,29.47,SSE,153,5.4,6.3,47,0.00,,---,0.00,VWS V14.01,2013-01-26 14:13:00,
2013-01-26 07:18:00,25.7,8.3,29.47,SSE,155,3.6,4.5,47,0.00,,---,0.00,VWS V14.01,2013-01-26 14:18:00,
2013-01-26 07:23:00,25.7,8.3,29.47,SSE,155,0.0,0.0,47,0.00,,---,0.00,VWS V14.01,2013-01-26 14:23:00,
2013-01-26 07:29:00,25.9,8.4,29.47,SSE,159,4.0,4.0,47,0.00,,---,0.00,VWS V14.01,2013-01-26 14:29:00,
2013-01-26 07:34:00,25.9,8.4,29.47,SW,221,4.9,5.4,47,0.00,,---,0.00,VWS V14.01,2013-01-26 14:34:00,
2013-01-26 07:40:00,25.9,8.4,29.47,WSW,252,4.9,5.4,47,0.00,,---,0.00,VWS V14.01,2013-01-26 14:40:00,
2013-01-26 07:46:00,26.1,9.1,29.47,WSW,237,3.1,3.1,48,0.00,,---,0.00,VWS V14.01,2013-01-26 14:46:00,
2013-01-26 07:51:00,26.2,9.2,29.47,SW,220,3.6,3.6,48,0.00,,---,0.00,VWS V14.01,2013-01-26 14:51:00,
2013-01-26 07:57:00,26.8,9.7,29.47,SW,220,0.0,2.2,48,0.00,,---,0.00,VWS V14.01,2013-01-26 14:57:00,
2013-01-26 08:02:00,27.0,9.9,29.47,SW,220,0.0,0.0,48,0.00,,---,0.00,VWS V14.01,2013-01-26 15:02:00,
2013-01-26 08:08:00,27.7,11.0,29.47,SW,220,0.0,0.0,49,0.00,,---,0.00,VWS V14.01,2013-01-26 15:08:00,
2013-01-26 08:13:00,28.6,11.9,29.47,SW,220,0.0,0.0,49,0.00,,---,0.00,VWS V14.01,2013-01-26 15:13:00,
2013-01-26 08:19:00,29.3,12.5,29.47,SW,220,0.0,0.0,49,0.00,,---,0.00,VWS V14.01,2013-01-26 15:19:00,
2013-01-26 08:24:00,29.8,13.0,29.47,SW,220,0.0,0.0,49,0.00,,---,0.00,VWS V14.01,2013-01-26 15:24:00,
2013-01-26 08:29:00,30.2,13.4,29.47,SW,219,0.0,2.2,49,0.00,,---,0.00,VWS V14.01,2013-01-26 15:29:00,
2013-01-26 08:35:00,30.7,13.4,29.47,South,176,4.0,4.0,48,0.00,,---,0.00,VWS V14.01,2013-01-26 15:35:00,
2013-01-26 08:40:00,31.1,14.2,29.47,SSE,156,3.6,4.0,49,0.00,,---,0.00,VWS V14.01,2013-01-26 15:40:00,
2013-01-26 08:46:00,31.6,14.7,29.47,South,172,4.0,4.0,49,0.00,,---,0.00,VWS V14.01,2013-01-26 15:46:00,
2013-01-26 08:51:00,32.4,15.4,29.47,SSE,166,6.3,6.3,49,0.00,,---,0.00,VWS V14.01,2013-01-26 15:51:00,
2013-01-26 08:57:00,32.7,15.7,29.47,South,171,5.4,5.8,49,0.00,,---,0.00,VWS V14.01,2013-01-26 15:57:00,
2013-01-26 09:02:00,33.3,16.6,29.47,SSE,166,6.3,6.3,50,0.00,,---,0.00,VWS V14.01,2013-01-26 16:02:00,
2013-01-26 09:08:00,33.6,17.0,29.47,South,170,5.4,5.8,50,0.00,,---,0.00,VWS V14.01,2013-01-26 16:08:00,
2013-01-26 09:14:00,34.0,16.8,29.47,SSE,167,5.4,5.4,49,0.00,,---,0.00,VWS V14.01,2013-01-26 16:14:00,
2013-01-26 09:19:00,34.7,18.0,29.47,SSE,167,5.8,8.1,50,0.00,,---,0.00,VWS V14.01,2013-01-26 16:19:00,
2013-01-26 09:25:00,35.2,18.0,29.47,South,186,5.8,7.2,49,0.00,,---,0.00,VWS V14.01,2013-01-26 16:25:00,
2013-01-26 09:31:00,35.4,18.2,29.47,South,179,5.4,6.3,49,0.00,,---,0.00,VWS V14.01,2013-01-26 16:31:00,
2013-01-26 09:36:00,35.6,17.9,29.47,South,170,5.4,5.4,48,0.00,,---,0.00,VWS V14.01,2013-01-26 16:36:00,
2013-01-26 09:42:00,36.1,18.4,29.47,SSE,165,5.8,5.8,48,0.00,,---,0.00,VWS V14.01,2013-01-26 16:42:00,
2013-01-26 09:47:00,36.5,18.7,29.47,South,177,3.1,3.1,48,0.00,,---,0.00,VWS V14.01,2013-01-26 16:47:00,
2013-01-26 09:52:00,37.0,19.2,29.47,SSW,203,4.9,4.9,48,0.00,,---,0.00,VWS V14.01,2013-01-26 16:52:00,
2013-01-26 09:58:00,37.0,18.2,29.47,SW,236,5.8,5.8,46,0.00,,---,0.00,VWS V14.01,2013-01-26 16:58:00,
2013-01-26 10:04:00,37.4,18.0,29.47,SSW,209,4.5,4.5,45,0.00,,---,0.00,VWS V14.01,2013-01-26 17:04:00,
2013-01-26 10:10:00,37.8,17.3,29.47,SSW,202,5.8,5.8,43,0.00,,---,0.00,VWS V14.01,2013-01-26 17:10:00,
2013-01-26 10:15:00,38.1,17.6,29.47,SW,216,5.4,6.3,43,0.00,,---,0.00,VWS V14.01,2013-01-26 17:15:00,
2013-01-26 10:21:00,38.8,17.7,29.47,SSW,198,4.0,5.8,42,0.00,,---,0.00,VWS V14.01,2013-01-26 17:21:00,
2013-01-26 10:27:00,39.2,17.5,29.47,SW,230,4.0,4.0,41,0.00,,---,0.00,VWS V14.01,2013-01-26 17:27:00,
2013-01-26 10:32:00,39.9,18.1,29.47,South,184,4.0,4.0,41,0.00,,---,0.00,VWS V14.01,2013-01-26 17:32:00,
2013-01-26 10:37:00,40.5,18.6,29.47,South,191,3.6,5.4,41,0.00,,---,0.00,VWS V14.01,2013-01-26 17:37:00,
2013-01-26 10:42:00,41.0,19.1,29.47,SSW,194,3.1,4.0,41,0.00,,---,0.00,VWS V14.01,2013-01-26 17:42:00,
2013-01-26 10:48:00,41.9,19.4,29.47,SSW,195,5.8,5.8,40,0.00,,---,0.00,VWS V14.01,2013-01-26 17:48:00,
2013-01-26 10:53:00,42.3,19.7,29.47,South,181,3.1,6.3,40,0.00,,---,0.00,VWS V14.01,2013-01-26 17:53:00,
2013-01-26 10:59:00,43.0,19.7,29.47,SSW,207,4.9,4.9,39,0.00,,---,0.00,VWS V14.01,2013-01-26 17:59:00,
2013-01-26 11:04:00,43.2,19.9,29.47,SSW,202,5.8,5.8,39,0.00,,---,0.00,VWS V14.01,2013-01-26 18:04:00,
2013-01-26 11:10:00,43.3,20.1,29.47,SSW,201,5.8,5.8,39,0.00,,---,0.00,VWS V14.01,2013-01-26 18:10:00,
2013-01-26 11:15:00,43.7,19.8,29.47,SSW,201,6.3,6.3,38,0.00,,---,0.00,VWS V14.01,2013-01-26 18:15:00,
2013-01-26 11:21:00,44.6,20.0,29.47,SSE,156,7.6,7.6,37,0.00,,---,0.00,VWS V14.01,2013-01-26 18:21:00,
2013-01-26 11:27:00,45.3,20.6,29.47,SSE,156,5.4,7.6,37,0.00,,---,0.00,VWS V14.01,2013-01-26 18:27:00,
2013-01-26 11:32:00,45.7,20.9,29.47,South,172,11.0,11.0,37,0.00,,---,0.00,VWS V14.01,2013-01-26 18:32:00,
2013-01-26 11:37:00,46.6,21.7,29.47,South,186,6.3,6.3,37,0.00,,---,0.00,VWS V14.01,2013-01-26 18:37:00,
2013-01-26 11:42:00,46.9,22.0,29.47,South,172,11.0,11.0,37,0.00,,---,0.00,VWS V14.01,2013-01-26 18:42:00,
2013-01-26 11:48:00,47.5,21.9,29.47,South,181,8.1,11.0,36,0.00,,---,0.00,VWS V14.01,2013-01-26 18:48:00,
2013-01-26 11:53:00,47.7,21.4,29.47,SE,146,6.7,10.5,35,0.00,,---,0.00,VWS V14.01,2013-01-26 18:53:00,
2013-01-26 11:59:00,47.8,20.1,29.44,South,182,10.5,10.5,33,0.00,,---,0.00,VWS V14.01,2013-01-26 18:59:00,
2013-01-26 12:04:00,48.2,19.7,29.44,South,170,8.3,8.3,32,0.00,,---,0.00,VWS V14.01,2013-01-26 19:04:00,
2013-01-26 12:10:00,48.9,19.6,29.44,SSE,166,11.0,11.0,31,0.00,,---,0.00,VWS V14.01,2013-01-26 19:10:00,
2013-01-26 12:15:00,49.3,19.9,29.44,SSE,150,8.3,8.3,31,0.00,,---,0.00,VWS V14.01,2013-01-26 19:15:00,
2013-01-26 12:20:00,50.0,20.6,29.44,SSE,161,8.7,8.7,31,0.00,,---,0.00,VWS V14.01,2013-01-26 19:20:00,
2013-01-26 12:26:00,50.5,20.3,29.44,SSE,155,12.3,12.3,30,0.00,,---,0.00,VWS V14.01,2013-01-26 19:26:00,
2013-01-26 12:31:00,50.9,20.6,29.44,South,175,8.7,8.7,30,0.00,,---,0.00,VWS V14.01,2013-01-26 19:31:00,
2013-01-26 12:36:00,51.3,20.9,29.44,SSE,160,10.5,10.5,30,0.00,,---,0.00,VWS V14.01,2013-01-26 19:36:00,
2013-01-26 12:41:00,51.3,20.9,29.44,SSE,167,7.6,8.7,30,0.00,,---,0.00,VWS V14.01,2013-01-26 19:41:00,
2013-01-26 12:47:00,52.0,20.7,29.41,South,187,5.4,6.3,29,0.00,,---,0.00,VWS V14.01,2013-01-26 19:47:00,
2013-01-26 12:52:00,52.0,19.9,29.41,South,186,7.6,8.7,28,0.00,,---,0.00,VWS V14.01,2013-01-26 19:52:00,
2013-01-26 12:58:00,52.3,20.2,29.41,South,183,6.7,8.1,28,0.00,,---,0.00,VWS V14.01,2013-01-26 19:58:00,
2013-01-26 13:03:00,52.5,20.4,29.41,SSW,193,7.6,8.3,28,0.00,,---,0.00,VWS V14.01,2013-01-26 20:03:00,
2013-01-26 13:09:00,52.5,19.5,29.41,SSW,202,5.8,8.3,27,0.00,,---,0.00,VWS V14.01,2013-01-26 20:09:00,
2013-01-26 13:14:00,52.5,19.5,29.41,South,189,6.3,8.1,27,0.00,,---,0.00,VWS V14.01,2013-01-26 20:14:00,
2013-01-26 13:20:00,52.7,19.7,29.41,SSE,154,6.3,8.7,27,0.00,,---,0.00,VWS V14.01,2013-01-26 20:20:00,
2013-01-26 13:26:00,52.7,19.7,29.41,SSE,163,8.7,8.7,27,0.00,,---,0.00,VWS V14.01,2013-01-26 20:26:00,
2013-01-26 13:32:00,52.9,19.8,29.41,South,171,6.3,6.3,27,0.00,,---,0.00,VWS V14.01,2013-01-26 20:32:00,
2013-01-26 13:38:00,52.9,19.8,29.41,SSW,198,7.6,7.6,27,0.00,,---,0.00,VWS V14.01,2013-01-26 20:38:00,
2013-01-26 13:44:00,53.1,20.0,29.41,SSE,154,8.3,8.3,27,0.00,,---,0.00,VWS V14.01,2013-01-26 20:44:00,
2013-01-26 13:49:00,53.1,20.0,29.41,SSE,151,9.2,9.2,27,0.00,,---,0.00,VWS V14.01,2013-01-26 20:49:00,
2013-01-26 13:55:00,53.2,20.1,29.41,SSE,157,8.3,8.7,27,0.00,,---,0.00,VWS V14.01,2013-01-26 20:55:00,
2013-01-26 14:00:00,53.4,20.3,29.38,SE,145,8.7,12.8,27,0.00,,---,0.00,VWS V14.01,2013-01-26 21:00:00,
2013-01-26 14:05:00,53.4,20.3,29.38,SE,144,11.0,11.0,27,0.00,,---,0.00,VWS V14.01,2013-01-26 21:05:00,
2013-01-26 14:11:00,53.4,20.3,29.38,SE,130,8.3,8.7,27,0.00,,---,0.00,VWS V14.01,2013-01-26 21:11:00,
2013-01-26 14:16:00,53.4,20.3,29.38,SSE,149,12.8,12.8,27,0.00,,---,0.00,VWS V14.01,2013-01-26 21:16:00,
2013-01-26 14:21:00,53.4,20.3,29.38,SSE,152,12.3,12.3,27,0.00,,---,0.00,VWS V14.01,2013-01-26 21:21:00,
2013-01-26 14:26:00,53.1,19.1,29.38,SSE,163,11.0,11.0,26,0.00,,---,0.00,VWS V14.01,2013-01-26 21:26:00,
2013-01-26 14:32:00,52.5,18.6,29.38,SE,125,12.8,15.0,26,0.00,,---,0.00,VWS V14.01,2013-01-26 21:32:00,
2013-01-26 14:37:00,52.3,18.5,29.38,SE,142,15.4,15.4,26,0.00,,---,0.00,VWS V14.01,2013-01-26 21:37:00,
2013-01-26 14:42:00,51.1,18.3,29.38,SE,130,18.3,18.3,27,0.00,,---,0.00,VWS V14.01,2013-01-26 21:42:00,
2013-01-26 14:47:00,50.5,17.8,29.38,ESE,120,16.3,16.3,27,0.00,,---,0.00,VWS V14.01,2013-01-26 21:47:00,
2013-01-26 14:53:00,49.8,17.2,29.38,SE,125,12.3,14.5,27,0.00,,---,0.00,VWS V14.01,2013-01-26 21:53:00,
2013-01-26 14:58:00,49.6,17.0,29.38,SE,137,15.0,16.3,27,0.00,,---,0.00,VWS V14.01,2013-01-26 21:58:00,
2013-01-26 15:03:00,49.5,16.9,29.38,SE,129,13.2,13.2,27,0.00,,---,0.00,VWS V14.01,2013-01-26 22:03:00,
2013-01-26 15:08:00,49.3,16.7,29.38,SSE,148,13.2,15.4,27,0.00,,---,0.00,VWS V14.01,2013-01-26 22:08:00,
2013-01-26 15:14:00,49.1,16.6,29.38,SE,128,11.0,13.6,27,0.00,,---,0.00,VWS V14.01,2013-01-26 22:14:00,
2013-01-26 15:19:00,49.1,16.6,29.38,SE,138,15.4,15.4,27,0.00,,---,0.00,VWS V14.01,2013-01-26 22:19:00,
2013-01-26 15:25:00,49.1,16.6,29.38,SE,140,12.8,15.0,27,0.00,,---,0.00,VWS V14.01,2013-01-26 22:25:00,
2013-01-26 15:30:00,49.3,16.7,29.38,SE,144,15.0,15.0,27,0.00,,---,0.00,VWS V14.01,2013-01-26 22:30:00,
2013-01-26 15:35:00,49.3,16.7,29.38,SE,142,12.8,12.8,27,0.00,,---,0.00,VWS V14.01,2013-01-26 22:35:00,
2013-01-26 15:40:00,49.3,16.7,29.38,SSE,148,11.4,15.4,27,0.00,,---,0.00,VWS V14.01,2013-01-26 22:40:00,
2013-01-26 15:46:00,49.3,16.7,29.38,SE,129,12.3,13.2,27,0.00,,---,0.00,VWS V14.01,2013-01-26 22:46:00,
2013-01-26 15:51:00,49.3,16.7,29.38,SE,130,12.8,12.8,27,0.00,,---,0.00,VWS V14.01,2013-01-26 22:51:00,
2013-01-26 15:56:00,49.3,16.7,29.38,SE,132,8.7,8.7,27,0.00,,---,0.00,VWS V14.01,2013-01-26 22:56:00,
2013-01-26 16:01:00,48.9,16.4,29.38,SE,128,10.5,11.0,27,0.00,,---,0.00,VWS V14.01,2013-01-26 23:01:00,
2013-01-26 16:07:00,48.6,16.1,29.35,SE,124,10.1,10.1,27,0.00,,---,0.00,VWS V14.01,2013-01-26 23:07:00,
2013-01-26 16:12:00,48.4,16.0,29.35,ESE,119,8.7,10.5,27,0.00,,---,0.00,VWS V14.01,2013-01-26 23:12:00,
2013-01-26 16:18:00,48.2,15.8,29.35,ESE,120,10.1,10.1,27,0.00,,---,0.00,VWS V14.01,2013-01-26 23:18:00,
2013-01-26 16:24:00,47.8,16.3,29.35,SE,124,10.1,10.5,28,0.00,,---,0.00,VWS V14.01,2013-01-26 23:24:00,
2013-01-26 16:29:00,47.3,15.9,29.35,ESE,109,9.2,10.5,28,0.00,,---,0.00,VWS V14.01,2013-01-26 23:29:00,
2013-01-26 16:35:00,46.9,15.6,29.35,ESE,113,9.6,9.6,28,0.00,,---,0.00,VWS V14.01,2013-01-26 23:35:00,
2013-01-26 16:40:00,46.6,15.2,29.35,ESE,117,10.5,10.5,28,0.00,,---,0.00,VWS V14.01,2013-01-26 23:40:00,
2013-01-26 16:46:00,45.7,14.5,29.35,ESE,118,10.1,10.1,28,0.00,,---,0.00,VWS V14.01,2013-01-26 23:46:00,
2013-01-26 16:52:00,44.8,13.7,29.35,ESE,115,11.0,11.0,28,0.00,,---,0.00,VWS V14.01,2013-01-26 23:52:00,
2013-01-26 16:57:00,44.1,13.9,29.35,ESE,119,11.9,11.9,29,0.00,,---,0.00,VWS V14.01,2013-01-26 23:57:00,
2013-01-26 17:02:00,43.5,13.4,29.35,SE,124,10.5,11.0,29,0.00,,---,0.00,VWS V14.01,2013-01-27 00:02:00,
2013-01-26 17:07:00,43.2,13.1,29.35,ESE,119,11.0,11.0,29,0.00,,---,0.00,VWS V14.01,2013-01-27 00:07:00,
2013-01-26 17:13:00,43.0,12.9,29.35,ESE,122,8.7,10.1,29,0.00,,---,0.00,VWS V14.01,2013-01-27 00:13:00,
2013-01-26 17:18:00,43.2,13.1,29.35,SE,126,9.6,10.1,29,0.00,,---,0.00,VWS V14.01,2013-01-27 00:18:00,
2013-01-26 17:24:00,43.3,13.2,29.35,ESE,115,9.2,9.6,29,0.00,,---,0.00,VWS V14.01,2013-01-27 00:24:00,
2013-01-26 17:29:00,43.2,13.1,29.35,East,95,7.6,7.6,29,0.00,,---,0.00,VWS V14.01,2013-01-27 00:29:00,
2013-01-26 17:34:00,43.2,13.1,29.35,ESE,113,8.3,8.3,29,0.00,,---,0.00,VWS V14.01,2013-01-27 00:34:00,
2013-01-26 17:39:00,43.2,13.1,29.35,SE,128,10.5,10.5,29,0.00,,---,0.00,VWS V14.01,2013-01-27 00:39:00,
2013-01-26 17:44:00,43.5,14.2,29.35,SE,124,11.0,11.0,30,0.00,,---,0.00,VWS V14.01,2013-01-27 00:44:00,
2013-01-26 17:49:00,44.1,14.6,29.35,SE,129,8.7,9.6,30,0.00,,---,0.00,VWS V14.01,2013-01-27 00:49:00,
2013-01-26 17:55:00,44.4,14.9,29.35,ESE,123,11.0,11.0,30,0.00,,---,0.00,VWS V14.01,2013-01-27 00:55:00,
2013-01-26 18:00:00,44.4,14.9,29.35,SE,126,10.1,10.5,30,0.00,,---,0.00,VWS V14.01,2013-01-27 01:00:00,
2013-01-26 18:06:00,44.6,15.1,29.35,ESE,117,8.3,10.5,30,0.00,,---,0.00,VWS V14.01,2013-01-27 01:06:00,
2013-01-26 18:11:00,44.4,14.9,29.35,SE,124,10.5,11.0,30,0.00,,---,0.00,VWS V14.01,2013-01-27 01:11:00,
2013-01-26 18:17:00,44.2,14.8,29.35,SE,124,10.1,10.5,30,0.00,,---,0.00,VWS V14.01,2013-01-27 01:17:00,
2013-01-26 18:23:00,44.4,15.7,29.35,SE,127,12.3,16.3,31,0.00,,---,0.00,VWS V14.01,2013-01-27 01:23:00,
2013-01-26 18:28:00,44.6,15.1,29.35,SE,131,15.4,15.4,30,0.00,,---,0.00,VWS V14.01,2013-01-27 01:28:00,
2013-01-26 18:34:00,45.3,16.5,29.35,SE,142,13.2,16.3,31,0.00,,---,0.00,VWS V14.01,2013-01-27 01:34:00,
2013-01-26 18:39:00,45.3,16.5,29.35,SE,124,15.4,15.4,31,0.00,,---,0.00,VWS V14.01,2013-01-27 01:39:00,
2013-01-26 18:44:00,45.5,15.9,29.35,SE,131,14.1,16.3,30,0.00,,---,0.00,VWS V14.01,2013-01-27 01:44:00,
2013-01-26 18:49:00,45.5,15.9,29.32,SE,140,15.4,15.4,30,0.00,,---,0.00,VWS V14.01,2013-01-27 01:49:00,
2013-01-26 18:55:00,45.7,16.0,29.32,SE,138,15.0,15.4,30,0.00,,---,0.00,VWS V14.01,2013-01-27 01:55:00,
2013-01-26 19:00:00,45.9,16.2,29.35,SSE,153,15.0,15.0,30,0.00,,---,0.00,VWS V14.01,2013-01-27 02:00:00,
2013-01-26 19:06:00,45.7,16.0,29.35,SE,139,12.8,13.2,30,0.00,,---,0.00,VWS V14.01,2013-01-27 02:06:00,
2013-01-26 19:11:00,45.7,16.0,29.35,SE,141,12.8,13.2,30,0.00,,---,0.00,VWS V14.01,2013-01-27 02:11:00,
2013-01-26 19:17:00,45.5,15.9,29.35,SE,143,13.2,15.4,30,0.00,,---,0.00,VWS V14.01,2013-01-27 02:17:00,
2013-01-26 19:22:00,45.5,15.9,29.35,SE,133,12.8,12.8,30,0.00,,---,0.00,VWS V14.01,2013-01-27 02:22:00,
2013-01-26 19:27:00,45.5,15.9,29.32,SE,140,15.9,15.9,30,0.00,,---,0.00,VWS V14.01,2013-01-27 02:27:00,
2013-01-26 19:33:00,45.5,15.9,29.32,SE,137,15.0,15.0,30,0.00,,---,0.00,VWS V14.01,2013-01-27 02:33:00,
2013-01-26 19:38:00,45.3,15.7,29.32,SSE,150,15.0,15.0,30,0.00,,---,0.00,VWS V14.01,2013-01-27 02:38:00,
2013-01-26 19:44:00,45.1,15.6,29.32,SE,144,13.2,15.0,30,0.00,,---,0.00,VWS V14.01,2013-01-27 02:44:00,
2013-01-26 19:50:00,44.8,15.3,29.32,SE,143,13.2,16.3,30,0.00,,---,0.00,VWS V14.01,2013-01-27 02:50:00,
2013-01-26 19:56:00,44.6,15.1,29.32,SE,140,15.0,17.4,30,0.00,,---,0.00,VWS V14.01,2013-01-27 02:56:00,
2013-01-26 20:02:00,44.4,15.7,29.32,SSE,149,15.0,15.0,31,0.00,,---,0.00,VWS V14.01,2013-01-27 03:02:00,
2013-01-26 20:08:00,44.2,15.5,29.32,SE,140,13.2,15.0,31,0.00,,---,0.00,VWS V14.01,2013-01-27 03:08:00,
2013-01-26 20:13:00,44.1,15.4,29.32,SE,141,11.0,12.3,31,0.00,,---,0.00,VWS V14.01,2013-01-27 03:13:00,
2013-01-26 20:19:00,44.1,15.4,29.32,SE,137,11.0,13.2,31,0.00,,---,0.00,VWS V14.01,2013-01-27 03:19:00,
2013-01-26 20:24:00,43.7,15.1,29.32,SE,143,10.5,11.0,31,0.00,,---,0.00,VWS V14.01,2013-01-27 03:24:00,
2013-01-26 20:30:00,43.5,14.9,29.32,SE,141,12.8,12.8,31,0.00,,---,0.00,VWS V14.01,2013-01-27 03:30:00,
2013-01-26 20:36:00,43.5,14.9,29.32,SSE,155,11.0,13.2,31,0.00,,---,0.00,VWS V14.01,2013-01-27 03:36:00,
2013-01-26 20:41:00,43.3,14.8,29.32,SSE,152,12.3,15.0,31,0.00,,---,0.00,VWS V14.01,2013-01-27 03:41:00,
2013-01-26 20:47:00,43.3,14.8,29.32,SE,137,12.8,12.8,31,0.00,,---,0.00,VWS V14.01,2013-01-27 03:47:00,
2013-01-26 20:52:00,43.3,14.8,29.32,SE,145,11.0,11.0,31,0.00,,---,0.00,VWS V14.01,2013-01-27 03:52:00,
2013-01-26 20:57:00,43.3,14.8,29.32,SSE,153,10.5,13.2,31,0.00,,---,0.00,VWS V14.01,2013-01-27 03:57:00,
2013-01-26 21:02:00,43.2,14.6,29.32,SSE,160,10.5,11.0,31,0.00,,---,0.00,VWS V14.01,2013-01-27 04:02:00,
2013-01-26 21:08:00,43.2,14.6,29.32,SE,144,13.2,13.2,31,0.00,,---,0.00,VWS V14.01,2013-01-27 04:08:00,
2013-01-26 21:14:00,43.0,14.4,29.29,SSE,148,15.4,15.4,31,0.00,,---,0.00,VWS V14.01,2013-01-27 04:14:00,
2013-01-26 21:19:00,43.0,14.4,29.29,SE,144,12.8,12.8,31,0.00,,---,0.00,VWS V14.01,2013-01-27 04:19:00,
2013-01-26 21:24:00,42.8,14.3,29.29,SE,141,15.4,15.4,31,0.00,,---,0.00,VWS V14.01,2013-01-27 04:24:00,
2013-01-26 21:29:00,42.8,14.3,29.29,SE,139,15.0,15.0,31,0.00,,---,0.00,VWS V14.01,2013-01-27 04:29:00,
2013-01-26 21:35:00,42.6,14.8,29.29,SE,144,11.9,12.8,32,0.00,,---,0.00,VWS V14.01,2013-01-27 04:35:00,
2013-01-26 21:41:00,42.4,14.7,29.29,SE,145,11.9,13.2,32,0.00,,---,0.00,VWS V14.01,2013-01-27 04:41:00,
2013-01-26 21:47:00,42.4,14.7,29.29,SE,142,10.1,10.1,32,0.00,,---,0.00,VWS V14.01,2013-01-27 04:47:00,
2013-01-26 21:53:00,42.3,14.5,29.29,SE,146,10.1,12.8,32,0.00,,---,0.00,VWS V14.01,2013-01-27 04:53:00,
2013-01-26 21:58:00,42.1,14.4,29.29,SSE,154,10.1,11.9,32,0.00,,---,0.00,VWS V14.01,2013-01-27 04:58:00,
2013-01-26 22:00:00,42.1,14.4,29.29,SSE,154,10.5,11.0,32,0.00,,---,0.00,VWS V14.01,2013-01-27 05:00:00,
2013-01-26 22:03:00,41.9,14.2,29.29,SSE,153,10.5,11.0,32,0.00,,---,0.00,VWS V14.01,2013-01-27 05:03:00,
2013-01-26 22:05:00,41.9,14.2,29.29,SSE,156,10.1,10.5,32,0.00,,---,0.00,VWS V14.01,2013-01-27 05:05:00,
2013-01-26 22:07:00,41.7,14.1,29.29,SSE,153,10.1,10.5,32,0.00,,---,0.00,VWS V14.01,2013-01-27 05:07:00,
2013-01-26 22:12:00,41.5,13.9,29.29,SSE,152,10.5,10.5,32,0.00,,---,0.00,VWS V14.01,2013-01-27 05:12:00,
2013-01-26 22:18:00,41.5,13.9,29.29,SE,145,10.5,10.5,32,0.00,,---,0.00,VWS V14.01,2013-01-27 05:18:00,
2013-01-26 22:24:00,41.4,13.7,29.29,SSE,152,7.2,8.3,32,0.00,,---,0.00,VWS V14.01,2013-01-27 05:24:00,
2013-01-26 22:29:00,41.2,13.6,29.29,SSE,151,8.3,8.3,32,0.00,,---,0.00,VWS V14.01,2013-01-27 05:29:00,
2013-01-26 22:35:00,41.0,13.4,29.29,SSE,151,8.1,8.1,32,0.00,,---,0.00,VWS V14.01,2013-01-27 05:35:00,
2013-01-26 22:40:00,40.8,14.0,29.29,SSE,149,7.6,8.1,33,0.00,,---,0.00,VWS V14.01,2013-01-27 05:40:00,
2013-01-26 22:46:00,40.6,13.8,29.29,SE,142,7.2,8.1,33,0.00,,---,0.00,VWS V14.01,2013-01-27 05:46:00,
2013-01-26 22:51:00,40.5,15.0,29.29,SE,145,10.1,10.5,35,0.00,,---,0.00,VWS V14.01,2013-01-27 05:51:00,
2013-01-26 22:57:00,40.3,16.1,29.29,SSE,148,13.2,13.2,37,0.00,,---,0.00,VWS V14.01,2013-01-27 05:57:00,
2013-01-26 23:03:00,40.1,17.1,29.29,SE,143,12.8,12.8,39,0.00,,---,0.00,VWS V14.01,2013-01-27 06:03:00,
2013-01-26 23:08:00,39.9,17.0,29.29,SE,135,10.1,12.3,39,0.00,,---,0.00,VWS V14.01,2013-01-27 06:08:00,
2013-01-26 23:13:00,39.9,17.6,29.29,SE,126,11.0,12.3,40,0.00,,---,0.00,VWS V14.01,2013-01-27 06:13:00,
2013-01-26 23:18:00,39.9,17.6,29.29,SE,129,12.8,12.8,40,0.00,,---,0.00,VWS V14.01,2013-01-27 06:18:00,
2013-01-26 23:23:00,39.9,18.1,29.29,SE,130,8.7,11.0,41,0.00,,---,0.00,VWS V14.01,2013-01-27 06:23:00,
2013-01-26 23:28:00,39.9,18.1,29.26,SE,145,11.0,11.0,41,0.00,,---,0.00,VWS V14.01,2013-01-27 06:28:00,
2013-01-26 23:34:00,39.4,18.2,29.26,SSE,149,10.1,10.1,42,0.00,,---,0.00,VWS V14.01,2013-01-27 06:34:00,
2013-01-26 23:40:00,39.0,18.4,29.26,SSE,150,10.1,10.1,43,0.00,,---,0.00,VWS V14.01,2013-01-27 06:40:00,
2013-01-26 23:46:00,38.8,18.3,29.26,SSE,165,8.7,8.7,43,0.00,,---,0.00,VWS V14.01,2013-01-27 06:46:00,
2013-01-26 23:52:00,38.7,18.1,29.26,SSE,153,8.1,8.3,43,0.00,,---,0.00,VWS V14.01,2013-01-27 06:52:00,
2013-01-26 23:57:00,38.5,17.9,29.26,SSE,152,7.6,10.1,43,0.00,,---,0.00,VWS V14.01,2013-01-27 06:57:00,